sat.trackr.live / text

‹ back to catalog

STARLINK-5315

NORAD 55309 · 2023-010AS

PAYLOAD ACTIVE UNKNOWN

§ Identity

Operator
Country
US
Launch date
2023-01-19
Launch site
AFWTR
Launch vehicle
Mass (kg)
RCS (m²)

Purposes: comms

External: N2YO · Heavens-Above · Gunter

§ Orbital elements

Epoch: 2026-05-25T02:46:00.706080Z

Period
96.11 min
Inclination
69.9986°
Eccentricity
0.0003577
Mean motion
14.98330903 rev/d
Perigee alt
569.6 km
Apogee alt
574.5 km
Semi-major
6,950.2 km
B*
-1.0015e-5
RAAN
171.6181°
Arg perigee
267.6299°
Mean anomaly
92.4451°
Rev number
18,522

§ Raw data

STARLINK-53151 55309U 23010AS  26145.11528595 -.00000213  00000+0 -10015-4 0  99902 55309  69.9986 171.6181 0003577 267.6299  92.4451 14.98330903185222

JSON: /api/v1/satellites/55309 · /tle

For live sub-satellite position, see the globe view (requires WebGL).

§ Visibility from observer

Set your observer location to see the next 7 days of passes ≥ 10°. The values pass through the URL so the page stays shareable.

No JS? Fill the form by hand. The geolocation button needs JavaScript.